Regional Weather Roundup
Issued by NWS Goodland, KS

Home | Current Version | Previous Version | Text Only | Print | Product List | Glossary On
Versions: 1 2 3 4 5 6 7 8 9 10 11 12 13 14 15 16 17 18 19 20 21 22 23 24 25 26 27 28 29 30 31 32 33 34 35 36 37 38 39 40 41 42 43 44 45 46 47 48 49 50
000
ASUS43 KGLD 220859
RWRGLD

GOODLAND FORECAST AREA HOURLY WEATHER ROUNDUP
NATIONAL WEATHER SERVICE GOODLAND KS
300 AM MDT FRI MAY 22 2015

...OFFICIAL OBSERVATIONS...

CITY           SKY/WX    TMP DP  RH WIND       PRES   REMARKS
GOODLAND KS    LGT RAIN  48  46  93 SE14      30.12F
HILL CITY KS   CLOUDY    50  44  80 SE6       30.19F
IMPERIAL NEB   CLOUDY    48  43  82 SE8       30.13F
MCCOOK NEB     CLOUDY    47  43  86 SE6       30.16F
AKRON CO       CLOUDY    46  44  93 SE15      30.08F
BURLINGTON CO  LGT RAIN  47  45  93 SE14      30.10F
LIMON CO       CLOUDY    43  43 100 SE15      30.05F
$$

...UNOFFICIAL OBSERVATIONS...

CITY           SKY/WX    TMP DP  RH WIND       PRES   REMARKS
COLBY KS       CLOUDY    50  48  93 SE10      30.16F
GOVE KS          N/A     51  32  48 MISG        N/A
LENORA KS        N/A     47  32  56 MISG        N/A
NORTON KS      CLEAR     48  43  81 E5        30.18S
SHARON SPRINGS   N/A     49  47  93 MISG        N/A
TRENTON NEB      N/A     47  32  56 S7          N/A
KIT CARSON CO    N/A     46  44  91 MISG        N/A
YUMA CO          N/A     48  43  84 SE9         N/A
$$


USA.gov is the U.S. government's official web portal to all federal, state and local government web resources and services.